DW2213 Weather Reports


time (UTC)temp
F
wind
direction
speed
knots
gust
knots
rain 1hr
in
rain 24hr
in
rain mn
in
humidity
%
barometer
mb
20260510231304 64 264 1.7 4.3 0.00 0.10 0.00 73 1012.1
20260510230803 64 257 1.7 2.6 0.00 0.10 0.00 74 1012.1
20260510230304 65 242 1.7 4.3 0.00 0.10 0.00 73 1012.1
20260510225804 65 272 1.7 2.6 0.00 0.10 0.00 73 1012.1
20260510225306 65 281 1.7 4.3 0.00 0.10 0.00 73 1012.1
20260510223804 65 280 2.6 4.3 0.00 0.10 0.00 71 1012.0
20260510223304 65 270 2.6 6.1 0.00 0.10 0.00 71 1012.0
20260510222804 65 286 2.6 6.1 0.00 0.10 0.00 71 1012.0
20260510222306 65 250 2.6 5.2 0.00 0.10 0.00 71 1012.1
20260510221804 65 262 2.6 6.1 0.00 0.10 0.00 72 1012.1
20260510221304 66 315 2.6 7.8 0.00 0.10 0.00 71 1012.2
20260510220819 66 266 2.6 5.2 0.00 0.10 0.00 70 1012.2
20260510220304 66 237 2.6 5.2 0.00 0.10 0.00 70 1012.1
20260510215804 66 295 2.6 6.1 0.00 0.10 0.10 70 1012.0
20260510215306 66 299 2.6 5.2 0.00 0.10 0.10 70 1012.0
20260510214804 66 296 2.6 6.1 0.00 0.10 0.10 70 1012.0
20260510214304 66 287 2.6 6.1 0.00 0.10 0.10 70 1012.0
20260510213803 66 259 3.5 7.8 0.00 0.10 0.10 70 1012.0
20260510213304 66 245 2.6 7.8 0.00 0.10 0.10 70 1011.9
20260510212804 66 350 4.3 8.7 0.00 0.10 0.10 69 1011.8
20260510212306 66 285 2.6 6.1 0.00 0.10 0.10 69 1011.8
20260510211804 66 320 3.5 8.7 0.00 0.10 0.10 69 1011.8
20260510211304 66 287 4.3 7.8 0.00 0.10 0.10 69 1011.8
20260510210804 66 313 4.3 8.7 0.00 0.10 0.10 70 1011.6
20260510204804 66 352 4.3 6.1 0.00 0.10 0.10 71 1011.5
20260510204303 66 341 3.5 5.2 0.00 0.10 0.10 71 1011.5
20260510203804 67 343 2.6 6.1 0.00 0.10 0.10 70 1011.3
20260510202804 67 346 3.5 6.1 0.00 0.10 0.10 69 1011.3
20260510202306 67 333 2.6 5.2 0.00 0.10 0.10 69 1011.2
20260510201804 67 334 3.5 7.0 0.00 0.10 0.10 69 1011.2
20260510201304 67 300 2.6 6.1 0.00 0.10 0.10 69 1011.1
20260510200804 67 304 2.6 6.1 0.00 0.10 0.10 69 1011.0
20260510200304 67 283 1.7 5.2 0.00 0.10 0.10 70 1011.0
20260510195804 67 347 2.6 6.1 0.00 0.10 0.10 72 1010.9
20260510195306 67 322 1.7 4.3 0.00 0.10 0.10 75 1010.9
20260510194304 67 316 1.7 2.6 0.00 0.10 0.10 76 1010.7
20260510193804 67 278 1.7 4.3 0.00 0.10 0.10 76 1010.6
20260510193304 67 275 0.9 2.6 0.00 0.10 0.10 76 1010.6
20260510192804 67 281 0.9 2.6 0.00 0.10 0.10 76 1010.5
20260510192306 68 286 0.9 1.7 0.00 0.10 0.10 75 1010.5
20260510191803 68 291 0.0 2.6 0.00 0.10 0.10 75 1010.3
20260510191304 68 315 2.6 5.2 0.00 0.10 0.10 75 1010.4
20260510190803 68 329 2.6 6.1 0.00 0.10 0.10 75 1010.3
20260510190304 68 350 3.5 7.0 0.00 0.10 0.10 77 1010.2
20260510185804 68 341 2.6 5.2 0.00 0.10 0.10 78 1010.1
20260510185306 68 353 3.5 6.1 0.01 0.10 0.10 78 1010.0
20260510184803 68 299 2.6 4.3 0.02 0.10 0.10 77 1010.1
20260510184304 69 282 2.6 5.2 0.03 0.10 0.10 77 1010.2
20260510183804 68 339 4.3 7.0 0.05 0.10 0.10 77 1010.1
20260510183304 68 350 5.2 7.8 0.10 0.10 0.10 78 1010.0
20260510182804 68 314 2.6 6.1 0.10 0.10 0.10 80 1010.0
20260510181803 67 349 2.6 6.1 0.10 0.10 0.10 83 1009.9
20260510181304 67 205 1.7 4.3 0.10 0.10 0.10 83 1009.9
20260510180804 67 202 1.7 4.3 0.10 0.10 0.10 83 1009.8
20260510180303 67 198 0.9 2.6 0.10 0.10 0.10 82 1009.7
20260510175804 67 198 1.7 2.6 0.10 0.10 0.10 81 1009.6
20260510175306 68 198 2.6 7.0 0.09 0.09 0.09 79 1009.5
20260510174804 68 243 1.7 5.2 0.08 0.08 0.08 77 1009.3
20260510174305 70 246 2.6 6.1 0.07 0.07 0.07 72 1009.2
20260510173805 72 301 4.3 11.3 0.05 0.05 0.05 68 1009.2
20260510173305 74 356 7.0 11.3 0.00 0.00 0.00 63 1009.2
20260510172306 76 0 5.2 8.7 0.00 0.00 0.00 63 1008.5
20260510171304 77 292 1.7 5.2 0.00 0.00 0.00 63 1008.4
20260510170805 77 96 0.9 4.3 0.00 0.00 0.00 60 1008.2
20260510170305 77 115 1.7 5.2 0.00 0.00 0.00 53 1008.0
20260510165805 78 138 0.9 2.6 0.00 0.00 0.00 53 1007.9
20260510165306 78 138 0.0 5.2 0.00 0.00 0.00 53 1008.0
20260510164805 78 134 4.3 6.1 0.00 0.00 0.00 53 1007.9
20260510164305 78 125 2.6 5.2 0.00 0.00 0.00 51 1008.0
20260510163804 78 120 1.7 5.2 0.00 0.00 0.00 52 1008.1
20260510163305 78 131 1.7 5.2 0.00 0.00 0.00 51 1008.1
20260510162805 79 133 4.3 6.1 0.00 0.00 0.00 51 1008.1
20260510161804 78 135 4.3 5.2 0.00 0.00 0.00 51 1008.3
20260510161305 78 136 2.6 5.2 0.00 0.00 0.00 53 1008.3
20260510160804 78 137 4.3 7.0 0.00 0.00 0.00 52 1008.2
20260510160305 78 127 3.5 7.0 0.00 0.00 0.00 52 1008.3
20260510155804 79 135 3.5 6.1 0.00 0.00 0.00 50 1008.4
20260510155306 79 115 6.1 8.7 0.00 0.00 0.00 50 1008.3
20260510154804 79 79 4.3 8.7 0.00 0.00 0.00 50 1008.4
20260510154305 79 132 4.3 8.7 0.00 0.00 0.00 50 1008.5
20260510153805 78 129 3.5 7.8 0.00 0.00 0.00 54 1008.5
20260510152805 78 133 4.3 7.8 0.00 0.00 0.00 59 1008.6
20260510152307 78 117 3.5 7.0 0.00 0.01 0.00 60 1008.7
20260510151805 77 152 5.2 7.8 0.00 0.01 0.00 59 1008.7
20260510151305 78 116 5.2 10.4 0.00 0.01 0.00 60 1008.8
20260510150804 78 110 5.2 8.7 0.00 0.01 0.00 61 1008.7
20260510150304 77 86 4.3 7.0 0.00 0.01 0.00 65 1008.7
20260510145804 77 87 3.5 10.4 0.00 0.01 0.00 66 1008.9
20260510144805 76 64 2.6 7.8 0.00 0.01 0.00 67 1009.0
20260510144304 76 78 4.3 7.8 0.00 0.01 0.00 67 1009.2
20260510142805 76 67 6.1 11.3 0.00 0.01 0.00 63 1009.5
20260510142306 77 35 6.1 10.4 0.00 0.01 0.00 61 1009.5
20260510141304 77 110 6.1 12.2 0.00 0.01 0.00 54 1009.7
20260510140804 77 82 6.1 11.3 0.00 0.01 0.00 46 1009.8
20260510140304 77 43 7.8 12.2 0.00 0.01 0.00 47 1009.8
20260510135804 78 18 7.8 11.3 0.00 0.01 0.00 48 1009.9
20260510135306 78 83 5.2 10.4 0.00 0.01 0.00 51 1010.0
20260510134806 78 24 7.0 11.3 0.00 0.01 0.00 49 1010.1
20260510134305 78 42 8.7 13.0 0.00 0.01 0.00 51 1010.3
20260510133304 78 11 7.0 11.3 0.00 0.01 0.00 50 1010.3
20260510132804 78 8 6.1 12.2 0.00 0.01 0.00 53 1010.3
20260510131804 78 18 7.0 11.3 0.00 0.01 0.00 53 1010.6
20260510130805 77 91 6.1 8.7 0.00 0.01 0.00 50 1010.8
20260510130304 77 45 8.7 11.3 0.00 0.01 0.00 50 1010.9
20260510125805 77 57 6.1 10.4 0.00 0.01 0.00 52 1011.0
20260510125306 77 4 6.1 10.4 0.00 0.02 0.00 52 1011.1
20260510124805 77 91 4.3 7.0 0.00 0.02 0.00 54 1011.1
20260510124304 75 107 4.3 8.7 0.00 0.03 0.00 58 1011.2
20260510123304 74 52 5.2 8.7 0.00 0.04 0.00 63 1011.2
20260510122804 74 53 7.8 11.3 0.00 0.05 0.00 63 1011.3
20260510122306 75 38 6.1 10.4 0.00 0.06 0.00 61 1011.3
20260510121805 75 29 6.1 10.4 0.00 0.07 0.00 60 1011.4
20260510121305 75 32 5.2 10.4 0.00 0.08 0.00 60 1011.4
20260510120805 75 30 5.2 7.8 0.00 0.10 0.00 60 1011.4
20260510120305 76 48 5.2 8.7 0.00 0.12 0.00 57 1011.6
20260510115804 76 69 4.3 10.4 0.00 0.14 0.00 57 1011.7
20260510115306 76 109 4.3 7.8 0.00 0.15 0.00 59 1011.7
20260510114805 76 29 4.3 7.8 0.00 0.17 0.00 60 1011.8
20260510113804 75 55 6.1 8.7 0.00 0.22 0.00 59 1011.9
20260510113304 75 30 5.2 10.4 0.00 0.24 0.00 61 1011.9
20260510112804 75 19 3.5 7.8 0.00 0.26 0.00 60 1011.9
20260510112306 75 88 4.3 10.4 0.00 0.26 0.00 61 1011.9
20260510111804 74 100 4.3 8.7 0.00 0.28 0.00 61 1012.0
20260510110804 75 52 5.2 10.4 0.00 0.30 0.00 63 1012.1
20260510110305 74 27 4.3 7.0 0.00 0.31 0.00 63 1012.2
20260510105804 74 1 4.3 7.8 0.00 0.32 0.00 62 1012.1
20260510105306 74 23 2.6 6.1 0.00 0.34 0.00 62 1012.1
20260510104804 73 4 3.5 5.2 0.00 0.34 0.00 63 1012.2
20260510104305 74 19 3.5 6.1 0.00 0.35 0.00 62 1012.3
20260510103805 75 0 1.7 7.8 0.00 0.36 0.00 63 1012.3
20260510103305 74 74 2.6 5.2 0.00 0.38 0.00 65 1012.4
20260510102804 74 22 2.6 7.0 0.00 0.42 0.00 65 1012.4
20260510102306 73 13 2.6 7.0 0.00 0.43 0.00 66 1012.5
20260510101804 73 20 3.5 6.1 0.00 0.44 0.00 66 1012.6
20260510101304 73 19 3.5 7.0 0.00 0.44 0.00 67 1012.6
20260510100305 73 42 1.7 5.2 0.00 0.46 0.00 67 1012.6
20260510095804 73 70 3.5 6.1 0.00 0.48 0.00 69 1012.6
20260510095306 73 67 2.6 7.0 0.00 0.48 0.00 68 1012.7
20260510094804 73 89 1.7 4.3 0.00 0.48 0.00 66 1012.7
20260510093804 73 103 1.7 5.2 0.00 0.49 0.00 66 1012.8
20260510093304 72 116 1.7 4.3 0.00 0.51 0.00 66 1012.9
20260510092804 71 116 1.7 4.3 0.00 0.57 0.00 69 1012.9
20260510092306 71 85 3.5 5.2 0.00 0.59 0.00 71 1013.0
20260510091805 70 113 0.9 2.6 0.00 0.59 0.00 72 1013.0
20260510091304 69 114 1.7 4.3 0.00 0.59 0.00 73 1013.0
20260510090805 69 113 0.9 4.3 0.00 0.60 0.00 74 1013.0
20260510090304 70 113 2.6 4.3 0.00 0.60 0.00 72 1013.0
20260510085805 69 153 0.9 2.6 0.00 0.62 0.00 74 1013.0
20260510085306 69 184 0.9 1.7 0.00 0.62 0.00 74 1013.1
20260510084805 69 184 1.7 2.6 0.00 0.64 0.00 72 1013.2
20260510084304 69 184 0.0 2.6 0.00 0.64 0.00 72 1013.2
20260510083305 69 184 0.9 2.6 0.00 0.68 0.00 72 1013.2
20260510082805 69 184 1.7 2.6 0.00 0.70 0.00 72 1013.2
20260510082306 69 184 0.9 1.7 0.00 0.72 0.00 74 1013.2
20260510081805 69 184 1.7 2.6 0.00 0.73 0.00 74 1013.1
20260510080305 67 225 0.9 2.6 0.00 0.80 0.00 76 1013.2
20260510075805 67 225 0.0 1.7 0.00 0.82 0.00 77 1013.3
20260510075306 67 225 0.9 1.7 0.00 0.84 0.00 78 1013.3
20260510074304 66 225 1.7 2.6 0.00 0.86 0.00 82 1013.3
20260510073804 65 226 0.9 2.6 0.00 0.86 0.00 81 1013.3
20260510073305 65 226 1.7 2.6 0.00 0.87 0.00 81 1013.3
20260510072805 64 226 0.0 0.9 0.00 0.88 0.00 84 1013.4
20260510072306 64 226 0.0 1.7 0.00 0.88 0.00 84 1013.4
20260510071804 63 227 0.0 0.9 0.00 0.90 0.00 85 1013.3
20260510071304 63 229 0.9 2.6 0.00 0.90 0.00 86 1013.3
20260510070805 63 229 0.0 1.7 0.00 0.90 0.00 87 1013.3
20260510070304 62 229 0.9 1.7 0.00 0.90 0.00 87 1013.3
20260510065804 62 229 0.9 0.9 0.00 0.90 0.00 88 1013.2
20260510065306 61 229 0.0 2.6 0.00 0.90 0.00 88 1013.1
20260510064805 61 229 1.7 2.6 0.00 0.90 0.00 89 1013.1
20260510064304 60 229 0.0 2.6 0.00 0.90 0.00 89 1013.1
20260510063804 60 229 0.0 0.9 0.00 0.90 0.00 89 1013.0
20260510062804 60 229 1.7 2.6 0.00 0.90 0.00 89 1012.8
20260510062307 59 229 0.9 2.6 0.00 0.90 0.00 89 1012.8
20260510061805 59 229 0.9 2.6 0.00 0.90 0.00 89 1012.8
20260510061304 59 229 1.7 2.6 0.00 0.90 0.00 89 1012.8
20260510060304 59 229 0.9 2.6 0.00 0.90 0.00 89 1012.7
20260510055804 59 229 0.9 2.6 0.00 0.90 0.00 89 1012.7
20260510055306 58 229 0.0 2.6 0.00 0.90 0.00 89 1012.6
20260510054804 58 229 1.7 2.6 0.00 0.90 0.00 89 1012.6
20260510054304 58 229 0.9 2.6 0.00 0.90 0.00 89 1012.5
20260510053804 58 229 1.7 2.6 0.00 0.90 0.00 89 1012.5
20260510053305 58 229 0.9 1.7 0.00 0.90 0.00 89 1012.4
20260510052804 58 229 0.0 0.9 0.00 0.90 0.00 89 1012.3
20260510052306 58 229 1.7 2.6 0.00 0.90 0.00 89 1012.2
20260510051805 58 229 0.0 2.6 0.00 0.90 0.00 89 1012.1
20260510051304 58 229 0.9 0.9 0.00 0.90 0.00 89 1012.1
20260510050805 58 229 0.0 0.9 0.00 0.90 0.00 89 1012.0
20260510050304 58 229 0.9 2.6 0.00 0.90 0.00 89 1012.0
20260510045804 58 229 0.0 1.7 0.00 0.90 0.00 89 1012.0
20260510045306 58 229 0.0 1.7 0.00 0.90 0.00 89 1012.0
20260510044804 58 229 0.9 2.6 0.00 0.90 0.00 89 1012.1
20260510043804 58 230 0.9 2.6 0.00 0.90 0.00 89 1012.2
20260510043304 58 230 0.9 2.6 0.00 0.90 0.00 89 1012.2
20260510042804 58 229 0.0 2.6 0.00 0.90 0.00 89 1012.2
20260510041804 58 229 0.9 2.6 0.00 0.90 0.00 89 1012.2
20260510041304 58 229 0.9 1.7 0.00 0.90 0.00 89 1012.2
20260510040804 58 229 0.0 1.7 0.00 0.90 0.00 89 1012.1
20260510035306 59 230 1.7 2.6 0.00 0.90 0.00 89 1012.0
20260510034804 59 230 1.7 4.3 0.00 0.90 0.00 89 1011.9
20260510033804 59 230 2.6 4.3 0.00 0.90 0.00 89 1011.8
20260510032804 59 231 2.6 6.1 0.00 0.90 0.00 90 1011.8
20260510032306 59 229 0.9 6.1 0.00 0.90 0.00 90 1011.7
20260510031804 59 225 2.6 6.1 0.00 0.90 0.00 90 1011.8
20260510031304 59 216 1.7 4.3 0.00 0.90 0.00 90 1011.8
20260510030304 59 234 1.7 4.3 0.00 0.90 0.00 91 1011.8
20260510025306 58 234 1.7 2.6 0.00 0.90 0.00 91 1011.7
20260510024804 58 234 0.9 2.6 0.00 0.90 0.00 91 1011.8
20260510024304 58 234 0.9 2.6 0.00 0.90 0.00 91 1011.8
20260510023805 58 234 0.9 2.6 0.00 0.90 0.00 90 1011.8
20260510023304 58 234 0.9 2.6 0.00 0.90 0.00 90 1011.8
20260510022804 58 234 0.0 0.0 0.00 0.90 0.00 90 1011.7
20260510022306 58 234 0.0 0.9 0.00 0.90 0.00 90 1011.8
20260510021804 59 234 0.0 1.7 0.00 0.90 0.00 90 1011.9
20260510021304 59 234 0.0 0.0 0.00 0.90 0.00 90 1011.9
20260510020804 59 234 0.0 0.0 0.00 0.90 0.00 90 1011.9
20260510020304 59 234 0.0 1.7 0.00 0.90 0.00 90 1011.9
20260510015306 59 234 0.0 2.6 0.00 0.90 0.00 90 1011.8
20260510014804 59 233 0.0 0.9 0.00 0.90 0.00 89 1011.8
20260510013804 59 244 0.9 2.6 0.00 0.90 0.00 90 1011.8
20260510013303 59 244 0.9 2.6 0.00 0.90 0.00 90 1011.8
20260510012804 59 244 0.0 1.7 0.00 0.90 0.00 90 1011.8
20260510012306 59 244 0.0 4.3 0.00 0.90 0.00 90 1011.8
20260510011803 59 242 0.9 2.6 0.00 0.90 0.00 90 1011.8
20260510011304 59 243 0.9 2.6 0.00 0.90 0.00 90 1011.9
20260510010804 60 243 0.0 4.3 0.00 0.90 0.00 90 1011.9
20260510010304 60 244 1.7 2.6 0.00 0.90 0.00 90 1012.0
20260510005804 60 244 1.7 2.6 0.00 0.90 0.00 90 1012.2
20260510005306 60 244 0.0 1.7 0.00 0.90 0.00 90 1012.2
20260510004805 60 244 0.9 1.7 0.00 0.90 0.00 90 1012.3
20260510004304 60 244 0.9 2.6 0.00 0.90 0.00 90 1012.3
20260510003803 61 244 0.0 1.7 0.00 0.90 0.00 90 1012.3
20260510003304 61 249 0.9 2.6 0.00 0.90 0.00 90 1012.4
20260510002804 61 244 1.7 2.6 0.00 0.90 0.00 90 1012.4
20260510002307 61 244 1.7 2.6 0.00 0.90 0.00 90 1012.5
20260510001804 61 244 0.9 2.6 0.00 0.90 0.00 90 1012.6
20260509235804 61 244 0.0 1.7 0.00 0.90 0.00 90 1012.6
20260509235306 61 244 0.0 2.6 0.00 0.90 0.00 90 1012.6
20260509234804 61 244 0.9 1.7 0.00 0.90 0.00 90 1012.7
20260509234304 61 244 0.9 2.6 0.00 0.90 0.00 91 1012.7
20260509233804 61 244 0.9 2.6 0.00 0.90 0.00 91 1012.7
20260509233304 61 244 0.0 0.0 0.00 0.90 0.00 90 1012.6
20260509232804 61 244 0.0 0.0 0.00 0.90 0.00 90 1012.7
20260509232306 61 244 0.0 0.0 0.00 0.90 0.00 90 1012.8
20260509231804 61 244 0.0 0.9 0.00 0.90 0.00 90 1012.8